Location: Table Mountain
(47.2500°N, 120.5778°W)
Time: 11:36:56
(UTC-07:00)

Tiangong 1 - Pass Details

Date: 12 October 2017
Orbit: 294 x 320 km, 42.8° (Epoch: 18 October)

Event Time Altitude Azimuth Distance (km) Brightness Sun altitude
Rises 19:44:06 0° 264° (W) 2,035 6.5 -15.1°
Reaches altitude 10° 19:46:19 10° 249° (WSW) 1,199 4.6 -15.5°
Maximum altitude 19:48:30 22° 194° (SSW) 733 2.5 -15.9°
Enters shadow 19:49:06 20° 172° (S) 776 2.5 -16.0°
